GSAT0101 (GALILEO-PFM)

Last updated on Thu Sep 03 2026 00:02:48 GMT+0000 (Coordinated Universal Time)

1 37846U 11060A 26245.27765018 -.00000080 00000+0 00000+0 0 9998 2 37846 56.9635 339.6718 0000481 63.0846 296.9646 1.70475552 92437
UTC large
Height (km)
Speed (km/s)
/
Latitude / Longitude
Inclination (degrees)
Orbital Period (minutes)
Azimuth
Elevation
Range (km)
Doppler Factor

Next 0 passes for location: London (51.5072 / 0.1276)

No passes found over London.
GSAT0101 (GALILEO-PFM)